Location: Constantia
(34.0183°S, 18.4411°E)
Time: 18:55:16
(UTC+00:00)

Cosmos 2297 Rocket - Pass Details

Date: 17 February 2020
Orbit: 838 x 844 km, 71.0° (Epoch: 07 April)

Event Time Altitude Azimuth Distance (km) Brightness Sun altitude
Exits shadow 00:42:10 18° 200° (SSW) 1,957 4.4 -37.8°
Drops below altitude 10° 00:44:08 10° 184° (S) 2,485 5.1 -37.6°
Sets 00:47:01 0° 171° (S) 3,426 6.2 -37.2°
